[[{"header":{"parameterUnit":"m.s-1","parameterCategory":1,"la1":30.2991,"la2":30.254,"lo1":-89.0895,"lo2":-89.0444,"dy":0.0017,"dx":0.0017,"nx":28,"ny":28,"refTime":"2024-02-05T03:00:00:Z","depth":0,"parameterNumber":2,"parameterNumberName":"U-component_of_WINDS"},"data":[0,0,0,0,0,0,0,0,0,0,0,0,0,0,0,0,0,0,0,0,0,0,0,0,0,0,0,0,0,0,0,0,0,0,0,0,0,0,0,0,0,0,0,0,0,0,0,0,0,0,0,0,0,0,0,0,0,0,2.4576,2.4576,0,2.4551,2.4551,2.455,2.4506,2.4506,2.4505,2.4504,2.4476,2.4476,2.4476,0,0,0,0,0,0,0,0,0,0,0,0,0,2.4587,2.4587,2.4577,2.4576,2.4576,2.4551,2.4551,2.455,2.4507,2.4506,2.4505,2.4504,2.4476,2.4476,2.4476,0,0,0,0,0,0,0,0,0,0,0,0,0,2.4574,2.4587,2.4577,2.4551,2.4549,2.4551,2.4551,2.455,2.4507,2.4506,2.4504,2.4503,2.4476,2.4476,2.4476,2.4501,0,0,2.4476,2.4476,0,0,0,0,0,0,0,0,2.4575,2.4574,2.4555,2.4553,2.455,2.4531,2.4544,2.4533,2.4507,2.4523,2.4504,2.4503,2.4495,2.4493,2.4491,2.4499,2.4498,2.4476,2.4476,2.4476,2.4476,0,0,0,0,0,0,0,2.4576,2.4575,2.4566,2.4555,2.4552,2.4541,2.4538,2.4542,2.4516,2.4521,2.4518,2.4516,2.4493,2.4491,2.449,2.4498,2.4476,2.4476,2.4476,2.4476,2.4526,2.4527,0,0,0,0,0,0,2.4581,2.4576,2.4567,2.4565,2.456,2.4542,2.4538,2.4538,2.4516,2.4511,2.4517,2.4514,2.4492,2.449,2.4489,2.4517,2.4476,2.4476,2.4476,2.4525,2.4526,2.4528,0,0,0,0,0,0,2.4581,2.458,2.4568,2.457,2.4567,2.4543,2.4543,2.4538,2.4536,2.4512,2.4507,2.4519,2.4491,2.4489,2.4499,2.4515,2.4476,2.4476,2.4523,2.4525,2.4527,2.4572,0,0,0,0,0,0,2.4582,2.4581,2.459,2.457,2.4568,2.4578,2.4544,2.4539,2.4536,2.4532,2.4514,2.4509,2.449,2.4499,2.4499,2.4515,2.4476,2.4522,2.4524,2.4526,2.4569,2.4576,2.4581,0,0,0,0,0,2.4582,2.4603,2.459,2.459,2.4578,2.4579,2.4577,2.4555,2.4538,2.4547,2.4532,2.451,2.4514,2.45,2.4499,2.4516,2.452,2.4523,2.4526,2.4566,2.4574,2.4581,0,0,0,0,0,0,2.4624,2.46,2.4586,2.4601,2.4593,2.4572,2.4582,2.4564,2.456,2.4556,2.4528,2.4524,2.4537,2.4527,2.4513,2.4539,2.4514,2.4517,2.4545,2.4552,2.4558,2.4559,2.4476,0,0,0,0,0,2.4635,2.4638,2.4617,2.4632,2.4629,2.4607,2.4606,2.459,2.458,2.4576,2.4561,2.4552,2.4551,2.4551,2.4549,2.4568,2.4564,2.4579,2.4585,2.459,2.4593,2.4603,2.461,2.4537,2.4537,2.4537,0,0,2.4658,2.4645,2.4648,2.464,2.4632,2.4636,2.4604,2.4609,2.4611,2.4576,2.4584,2.4574,2.4562,2.4577,2.4582,2.4569,2.4612,2.4594,2.4598,2.4598,2.4606,2.4613,2.4619,2.4539,2.4539,2.4539,0,0,2.4701,2.4692,2.4704,2.4696,2.4685,2.467,2.4673,2.4656,2.4647,2.4656,2.463,2.4633,2.4632,2.4624,2.462,2.4663,2.4643,2.4664,2.4694,2.4704,2.471,2.4715,2.473,2.4736,2.4667,2.4667,2.4667,0,2.473,2.4734,2.4712,2.4719,2.4716,2.4687,2.4699,2.4693,2.4681,2.468,2.4665,2.4665,2.4654,2.4667,2.4678,2.4676,2.4679,2.4665,2.4711,2.4716,2.472,2.4734,2.474,2.4669,2.4669,2.4669,2.4668,0,2.4771,2.4775,2.4786,2.4777,2.4775,2.4785,2.4764,2.4766,2.4751,2.4738,2.4747,2.4734,2.4729,2.4731,2.4716,2.4742,2.4734,2.4716,2.469,2.473,2.4742,2.4748,2.4673,2.4672,2.4671,2.467,0,0,2.4837,2.4817,2.4821,2.4817,2.4803,2.4805,2.4814,2.481,2.4812,2.4806,2.4812,2.4814,2.4797,2.4793,2.4777,2.4786,2.4821,2.4766,2.4765,2.4776,2.485,2.4863,2.4869,2.4808,2.4809,2.481,2.485,0,2.4877,2.489,2.4871,2.4889,2.4893,2.4866,2.4874,2.4866,2.4855,2.4856,2.4844,2.4845,2.4823,2.482,2.4828,2.4815,2.4835,2.4812,2.4813,2.4814,2.4816,2.4876,2.489,2.4928,2.4855,2.4856,2.4857,0,2.4923,2.492,2.4939,2.4925,2.4926,2.4933,2.4929,2.4931,2.4922,2.4913,2.491,2.4891,2.4899,2.4875,2.4886,2.4871,2.4871,2.4864,2.4865,2.4863,2.4837,2.4875,2.494,2.4946,2.4865,2.4864,2.4863,0,2.497,2.497,2.4981,2.4979,2.4963,2.4969,2.4962,2.4953,2.4952,2.4949,2.4948,2.4945,2.4944,2.4942,2.4924,2.4908,2.4937,2.4911,2.4929,2.493,2.4935,2.4935,2.5,2.4937,2.4937,2.4937,2.4937,0,2.5015,2.5027,2.5002,2.5009,2.5022,2.5001,2.5015,2.5006,2.4998,2.5003,2.4979,2.4984,2.496,2.4963,2.4948,2.4959,2.4959,2.4952,2.4948,2.4953,2.4954,2.4952,2.4948,2.4938,2.4938,2.4938,2.4937,0,2.5067,2.5051,2.5062,2.5047,2.5043,2.5054,2.5041,2.5047,2.5035,2.5042,2.5042,2.5023,2.5025,2.5007,2.5005,2.4996,2.5013,2.5005,2.5016,2.5013,2.5032,2.5031,2.5098,2.5105,2.5038,2.5039,2.504,0,2.5096,2.5105,2.5092,2.5094,2.5089,2.5092,2.5092,2.5072,2.5073,2.5065,2.5072,2.5072,2.5071,2.5076,2.5062,2.5061,2.5052,2.5075,2.5051,2.5057,2.5051,2.5051,2.5051,2.508,2.5081,2.5081,2.5082,0,2.515,2.5142,2.5143,2.5141,2.5142,2.514,2.5136,2.5139,2.5117,2.512,2.5122,2.5121,2.5121,2.5121,2.5118,2.5111,2.5093,2.509,2.5094,2.5099,2.5105,2.5102,2.5029,2.5088,2.5088,2.5087,2.5087,2.5086,2.5191,2.5198,2.519,2.5192,2.5188,2.5185,2.519,2.518,2.5182,2.518,2.5168,2.5173,2.5165,2.5159,2.5154,2.5158,2.5146,2.5152,2.5153,2.5155,2.5158,2.5106,2.5157,2.5157,2.5157,2.5157,2.5156,0,2.5242,2.5237,2.5239,2.5235,2.5237,2.5222,2.5217,2.522,2.5224,2.5219,2.5219,2.5222,2.5223,2.5211,2.521,2.5215,2.5207,2.5216,2.5214,2.5213,2.5169,2.5165,2.5223,2.5223,2.5223,2.5223,2.5223,2.5223,2.5269,2.5281,2.5272,2.5282,2.5276,2.5281,2.5279,2.5277,2.5273,2.5278,2.5279,2.5271,2.5263,2.5263,2.5263,2.5259,2.526,2.5271,2.5265,2.5223,2.5216,2.521,2.5207,2.5272,2.5272,2.5309,2.5309,2.5309]},{"header":{"parameterUnit":"m.s-1","parameterCategory":1,"la1":30.2991,"la2":30.254,"lo1":-89.0895,"lo2":-89.0444,"dy":0.0017,"dx":0.0017,"nx":28,"ny":28,"refTime":"2024-02-05T03:00:00:Z","depth":0,"parameterNumber":3,"parameterNumberName":"V-component_of_WINDS"},"data":[0,0,0,0,0,0,0,0,0,0,0,0,0,0,0,0,0,0,0,0,0,0,0,0,0,0,0,0,0,0,0,0,0,0,0,0,0,0,0,0,0,0,0,0,0,0,0,0,0,0,0,0,0,0,0,0,0,0,-6.3465,-6.3467,0,-6.3576,-6.3577,-6.3579,-6.3495,-6.3491,-6.3488,-6.3484,-6.3594,-6.3601,-6.3607,0,0,0,0,0,0,0,0,0,0,0,0,0,-6.3179,-6.3185,-6.3465,-6.3467,-6.3468,-6.3576,-6.3577,-6.3579,-6.3495,-6.3491,-6.3487,-6.3482,-6.3592,-6.36,-6.3607,0,0,0,0,0,0,0,0,0,0,0,0,0,-6.3298,-6.3187,-6.3465,-6.344,-6.3438,-6.3576,-6.3578,-6.3579,-6.3496,-6.3491,-6.3485,-6.348,-6.359,-6.3599,-6.3608,-6.3776,0,0,-6.3637,-6.3642,0,0,0,0,0,0,0,0,-6.3291,-6.3309,-6.3442,-6.3442,-6.344,-6.3516,-6.3517,-6.3645,-6.3498,-6.3474,-6.3484,-6.3478,-6.3573,-6.3583,-6.3616,-6.3781,-6.3786,-6.3638,-6.3644,-6.3648,-6.3651,0,0,0,0,0,0,0,-6.3283,-6.3303,-6.3509,-6.3444,-6.3443,-6.3422,-6.3433,-6.3541,-6.3553,-6.3476,-6.347,-6.3485,-6.3571,-6.3607,-6.3618,-6.3787,-6.3638,-6.3646,-6.3652,-6.3656,-6.4097,-6.4102,0,0,0,0,0,0,-6.3278,-6.3297,-6.3505,-6.3512,-6.3351,-6.3431,-6.3443,-6.3497,-6.3551,-6.3554,-6.3489,-6.348,-6.3593,-6.3607,-6.3621,-6.3822,-6.3648,-6.3657,-6.3662,-6.4091,-6.4098,-6.4105,0,0,0,0,0,0,-6.3272,-6.3297,-6.3501,-6.3403,-6.3428,-6.3442,-6.3503,-6.3502,-6.3538,-6.3561,-6.3562,-6.3524,-6.359,-6.3608,-6.3739,-6.3825,-6.3661,-6.367,-6.4084,-6.4093,-6.4101,-6.4225,0,0,0,0,0,0,-6.3264,-6.3296,-6.336,-6.3405,-6.3433,-6.3618,-6.3508,-6.3508,-6.3555,-6.3545,-6.3594,-6.3597,-6.3587,-6.3725,-6.3748,-6.3835,-6.3677,-6.4076,-6.4088,-6.4098,-6.4213,-6.4237,-6.4257,0,0,0,0,0,-6.3254,-6.3389,-6.3364,-6.3389,-6.3514,-6.3623,-6.3639,-6.3625,-6.3562,-6.3627,-6.3642,-6.3595,-6.3811,-6.3739,-6.3764,-6.3855,-6.4071,-6.4084,-6.4098,-6.4203,-6.4232,-6.4257,0,0,0,0,0,0,-6.3353,-6.3395,-6.3367,-6.3521,-6.3569,-6.3609,-6.369,-6.3656,-6.3722,-6.371,-6.3689,-6.3701,-6.3838,-6.3859,-6.3778,-6.4021,-6.3931,-6.395,-6.4002,-6.403,-6.4052,-6.4044,-6.3685,0,0,0,0,0,-6.3392,-6.3478,-6.351,-6.3643,-6.3668,-6.3675,-6.3722,-6.3708,-6.3756,-6.3776,-6.38,-6.3848,-6.3927,-6.3979,-6.4053,-6.4215,-6.4225,-6.429,-6.4312,-6.433,-6.4347,-6.4436,-6.4465,-6.4149,-6.4149,-6.4149,0,0,-6.3475,-6.3509,-6.3564,-6.3663,-6.3699,-6.3788,-6.3693,-6.379,-6.3856,-6.379,-6.3916,-6.3936,-6.3988,-6.4136,-6.4202,-6.4157,-6.4437,-6.4347,-6.4362,-6.4369,-6.4453,-6.4483,-6.4509,-6.4158,-6.4157,-6.4155,0,0,-6.3672,-6.3706,-6.3821,-6.3859,-6.3915,-6.3918,-6.3946,-6.3991,-6.4002,-6.4128,-6.4081,-6.4158,-6.4294,-6.4333,-6.4371,-6.4584,-6.4544,-6.4608,-6.4724,-6.4811,-6.4836,-6.4858,-6.4935,-6.4962,-6.4625,-6.4625,-6.4626,0,-6.3768,-6.3901,-6.3884,-6.3986,-6.4031,-6.3977,-6.4093,-6.413,-6.4207,-6.4239,-6.4189,-6.4359,-6.439,-6.4547,-6.4599,-6.4631,-6.4662,-6.4603,-6.4833,-6.4855,-6.4876,-6.4949,-6.4978,-6.4633,-6.4632,-6.4631,-6.4631,0,-6.4016,-6.4109,-6.4195,-6.4272,-6.4327,-6.4436,-6.4435,-6.4492,-6.4473,-6.4482,-6.4611,-6.4647,-6.4727,-6.4763,-6.4744,-6.4918,-6.4889,-6.4836,-6.4746,-6.4914,-6.4982,-6.501,-6.4644,-6.4641,-6.4639,-6.4637,0,0,-6.4279,-6.4346,-6.4378,-6.4413,-6.447,-6.4542,-6.4647,-6.4727,-6.4778,-6.4832,-6.4921,-6.5037,-6.4989,-6.5033,-6.5018,-6.5094,-6.5261,-6.5032,-6.5033,-6.5074,-6.5456,-6.5496,-6.5529,-6.5235,-6.524,-6.5244,-6.5452,0,-6.4479,-6.4666,-6.4654,-6.4829,-6.4915,-6.4865,-6.4957,-6.5002,-6.5013,-6.5087,-6.5098,-6.5182,-6.5112,-6.5138,-6.5211,-6.5226,-6.5338,-6.521,-6.5317,-6.5321,-6.5308,-6.5565,-6.5607,-6.5802,-6.5478,-6.5483,-6.5486,0,-6.4739,-6.4804,-6.4988,-6.5034,-6.507,-6.5153,-6.5226,-6.5297,-6.5347,-6.535,-6.5399,-6.5372,-6.5479,-6.5385,-6.5532,-6.5445,-6.5488,-6.5502,-6.5509,-6.552,-6.5415,-6.5584,-6.5863,-6.5893,-6.5528,-6.5525,-6.5522,0,-6.4914,-6.5047,-6.5175,-6.5206,-6.5262,-6.5323,-6.5349,-6.5393,-6.5443,-6.5506,-6.5537,-6.5612,-6.5653,-6.571,-6.5704,-6.5636,-6.5854,-6.5759,-6.5859,-6.586,-6.5908,-6.5906,-6.6201,-6.5934,-6.5933,-6.5933,-6.5932,0,-6.514,-6.5255,-6.5255,-6.5334,-6.5461,-6.5446,-6.5572,-6.5591,-6.5631,-6.5713,-6.5672,-6.5749,-6.5735,-6.5812,-6.5807,-6.593,-6.5948,-6.5954,-6.5951,-6.5959,-6.5958,-6.5987,-6.5974,-6.594,-6.5939,-6.5937,-6.5936,0,-6.5358,-6.5362,-6.5498,-6.5541,-6.5554,-6.5647,-6.5682,-6.5757,-6.5764,-6.5868,-6.5891,-6.5903,-6.5991,-6.5991,-6.609,-6.6087,-6.6239,-6.622,-6.6223,-6.6219,-6.632,-6.6312,-6.6646,-6.6689,-6.6392,-6.6395,-6.6398,0,-6.5503,-6.5591,-6.5643,-6.5695,-6.5726,-6.581,-6.586,-6.5849,-6.5903,-6.5967,-6.6034,-6.6118,-6.6186,-6.6329,-6.6346,-6.6422,-6.6406,-6.6518,-6.6417,-6.6422,-6.641,-6.6406,-6.6415,-6.6538,-6.6541,-6.6544,-6.6546,0,-6.5761,-6.5759,-6.5834,-6.591,-6.5972,-6.6031,-6.6085,-6.613,-6.6124,-6.6187,-6.6278,-6.633,-6.6433,-6.6518,-6.6592,-6.6617,-6.6582,-6.6578,-6.6605,-6.6614,-6.6613,-6.6617,-6.6278,-6.657,-6.6568,-6.6566,-6.6565,-6.6564,-6.5948,-6.6024,-6.6073,-6.6158,-6.6198,-6.625,-6.6323,-6.634,-6.6416,-6.65,-6.6488,-6.6589,-6.6637,-6.6733,-6.6765,-6.6843,-6.6804,-6.6843,-6.6854,-6.6864,-6.6876,-6.6599,-6.6856,-6.6856,-6.6855,-6.6854,-6.6854,0,-6.6205,-6.6234,-6.6313,-6.6391,-6.6458,-6.6419,-6.6477,-6.6536,-6.6626,-6.6674,-6.6742,-6.6846,-6.6929,-6.6953,-6.7032,-6.709,-6.7076,-6.7112,-6.7108,-6.7115,-6.6906,-6.6875,-6.7122,-6.7122,-6.7122,-6.7122,-6.7122,-6.7122,-6.6347,-6.6474,-6.6478,-6.6625,-6.6652,-6.6753,-6.679,-6.6838,-6.6876,-6.6995,-6.7064,-6.7079,-6.7118,-6.7199,-6.7273,-6.7278,-6.7309,-6.7352,-6.7351,-6.7156,-6.7129,-6.7104,-6.7075,-6.7359,-6.7359,-6.7553,-6.7555,-6.7556]}]]